Theta_e
316 316 316 316 316 314 314 314 313 315 316 317 318 318 317 314 314 310 310 310 308 305 306 309 310 308 308 308 303 308 307 308 309 305 305 304 302 305 303 304 303 303 302 304 303 300 298 315 315 309 315 320 321 321
315 315 316 316 315 314 313 314 313 313 313 316 317 318 317 314 313 310 307 309 309 306 307 309 312 313 313 312 308 308 307 307 310 308 307 307 304 305 302 301 306 302 305 304 305 306 312 316 319 321 320 316 317 320
314 314 315 315 314 314 313 313 314 313 312 315 317 318 317 314 313 311 308 307 307 306 308 307 309 312 313 313 315 306 309 309 310 311 310 308 304 306 301 302 303 307 307 305 305 308 313 318 318 318 318 316 318 320
313 314 314 314 313 313 313 313 314 313 313 315 316 317 317 314 312 310 307 307 307 306 303 307 312 312 314 313 313 314 311 311 311 311 309 307 304 308 305 304 304 307 308 306 306 309 310 314 316 317 316 316 317 318
312 313 312 312 312 312 312 313 314 314 314 316 316 316 316 313 311 308 309 309 309 307 303 306 310 309 310 310 309 311 311 310 310 309 308 305 308 306 307 305 303 308 306 303 301 310 310 312 314 316 315 315 317 317
311 311 310 310 310 311 312 312 313 315 315 315 315 316 315 312 309 307 307 310 310 310 304 299 307 306 308 311 309 310 311 309 310 309 308 309 309 308 303 302 309 310 311 313 309 313 313 314 315 316 316 317 318 318
309 309 309 309 310 310 310 311 313 314 314 315 314 315 313 310 310 306 304 310 308 308 303 299 300 306 307 309 310 309 309 310 310 310 307 309 309 308 306 301 309 312 313 312 313 312 312 315 314 317 317 317 317 317
308 308 309 309 309 310 311 311 312 314 314 314 314 313 311 308 307 306 310 308 309 304 304 298 299 303 308 308 308 312 308 310 310 310 309 309 308 308 303 309 311 312 313 314 315 315 315 316 316 316 317 317 316 315
307 308 308 308 309 310 311 312 313 314 314 314 312 309 308 307 304 310 312 310 308 305 301 300 298 297 307 306 309 312 312 306 310 308 308 308 306 303 308 312 311 312 313 314 315 315 316 314 315 316 316 315 315 316
307 308 308 308 308 309 310 312 313 314 313 310 308 305 304 308 310 312 309 307 305 305 304 299 302 298 303 304 306 309 310 308 304 307 310 306 305 312 313 313 314 314 315 314 312 312 314 314 314 314 315 316 316 315
307 308 308 308 308 309 310 311 313 312 308 306 304 301 308 310 310 307 302 302 302 298 302 302 301 299 305 302 304 309 307 305 300 304 304 304 304 310 315 315 316 315 316 316 317 317 317 316 315 314 314 316 317 316
306 307 307 307 308 309 310 311 312 309 307 306 304 307 308 307 304 299 299 300 298 297 303 303 304 302 305 306 307 307 304 304 297 307 303 300 308 312 314 315 316 318 318 317 318 317 317 316 316 317 316 315 316 317
306 306 307 308 308 309 310 311 311 310 308 306 304 301 302 301 291 294 291 296 298 303 306 306 306 307 307 309 307 305 300 300 306 301 300 305 311 314 316 316 316 318 318 317 318 318 317 317 318 317 316 317 316 316
305 306 307 307 308 309 310 310 311 309 306 300 298 290 296 295 297 298 299 300 303 306 308 310 309 309 311 304 307 299 304 304 298 297 299 310 312 314 316 317 316 316 316 317 318 318 317 317 317 318 319 319 318 317
305 305 306 307 308 309 309 309 310 308 303 298 298 291 297 302 302 303 303 303 304 306 305 307 307 307 307 304 305 302 298 296 300 301 308 313 315 315 315 315 315 316 316 317 318 317 317 317 316 315 318 319 320 321
306 305 305 307 308 309 309 309 307 306 302 299 299 296 301 299 300 301 302 300 304 304 308 307 303 302 302 304 300 298 297 296 303 308 311 313 313 314 315 316 316 316 317 317 318 317 317 316 316 315 318 319 320 321
306 303 307 308 309 309 309 305 304 300 299 297 296 301 301 300 300 303 304 302 307 305 303 304 299 298 305 301 299 305 302 306 309 310 313 316 315 314 316 316 317 317 318 318 317 317 315 317 317 316 315 318 319 322
304 308 308 309 309 308 306 305 302 299 295 297 297 301 301 302 302 303 304 305 305 304 306 303 307 301 298 297 301 309 310 314 314 313 314 315 317 317 317 317 318 318 318 317 317 317 316 315 313 313 315 317 318 320
307 308 309 309 308 304 300 301 303 295 297 300 302 302 302 303 304 306 306 306 307 308 308 306 301 300 301 307 307 311 312 313 311 311 312 316 317 317 317 318 318 318 317 317 317 315 314 315 314 314 314 316 316 319
308 308 310 310 309 302 298 299 304 298 297 301 301 300 301 302 304 304 304 304 303 302 302 300 300 304 306 310 311 311 311 313 312 309 309 313 316 318 317 316 318 316 317 317 315 308 313 313 314 315 314 314 317 317
307 309 310 309 305 304 302 299 298 299 301 300 302 301 301 303 301 301 301 303 300 300 299 303 305 307 312 312 313 313 312 314 312 312 310 312 318 317 318 318 318 317 316 315 312 313 310 312 313 315 313 311 313 316
306 308 305 306 302 303 301 303 300 302 299 301 301 302 300 299 301 301 302 299 300 302 304 305 307 308 309 310 311 312 314 315 315 314 306 309 315 318 317 317 316 315 315 315 314 311 311 312 312 313 312 312 310 310
308 307 303 303 299 296 296 304 298 299 295 297 299 297 298 299 303 305 302 303 303 308 308 307 309 312 311 312 313 313 314 314 315 319 318 316 319 319 318 317 317 315 315 315 314 311 311 305 310 311 311 310 310 310
307 301 298 297 297 294 300 295 298 298 299 298 298 298 301 303 306 304 302 306 308 312 310 311 310 308 309 311 311 314 316 318 320 318 316 318 316 316 317 317 317 317 316 317 315 313 313 313 308 312 309 308 308 308
294 294 295 290 298 295 294 295 296 297 296 299 298 299 301 305 302 302 303 308 309 310 313 316 310 309 311 313 316 316 319 321 316 312 315 317 316 315 314 315 316 317 319 316 315 315 314 314 313 312 312 312 311 311
289 295 293 295 296 294 296 295 296 297 297 297 300 303 305 303 299 298 302 305 308 312 312 312 314 312 313 318 313 313 313 317 313 312 315 317 315 313 312 312 312 314 317 316 315 314 314 314 313 312 310 308 300 307
289 293 297 301 299 300 300 300 301 299 298 298 300 302 301 295 294 302 307 309 309 312 317 316 315 313 311 312 315 315 319 320 319 318 319 319 319 319 316 312 312 315 318 316 316 315 314 313 312 310 310 311 310 308
297 299 296 299 299 300 298 300 299 298 299 303 303 298 297 299 301 308 309 311 314 316 316 316 316 316 315 315 316 315 313 318 315 316 314 314 315 316 318 319 320 302 316 316 317 316 315 315 314 312 310 310 310 311
298 301 301 298 299 300 301 300 300 302 304 304 301 302 305 311 314 316 315 318 318 317 315 315 315 316 314 313 312 314 316 315 314 312 310 310 312 314 318 318 318 318 318 316 296 306 313 313 313 314 313 312 311 311
299 302 300 300 299 299 302 304 303 305 307 310 311 311 312 314 317 318 317 317 315 315 317 318 318 315 312 314 313 312 314 315 316 314 311 311 313 315 317 317 317 317 317 317 315 313 300 310 308 313 311 312 311 310
304 302 301 301 300 303 307 310 310 311 312 312 314 312 312 314 317 319 318 318 318 318 319 318 317 317 314 312 313 312 312 315 316 316 315 317 315 316 317 318 318 315 317 317 316 315 314 313 313 313 312 312 311 309
301 301 301 299 302 307 307 307 308 309 310 310 310 312 312 312 310 316 317 317 316 316 312 316 317 316 318 319 318 317 301 318 318 318 318 315 316 317 318 318 317 316 316 314 313 315 314 313 314 313 313 314 314 313
303 304 305 304 305 305 308 307 307 308 310 308 309 310 311 310 309 314 320 319 316 315 314 318 320 320 318 318 318 315 307 310 302 294 295 296 299 305 314 319 319 318 316 316 315 315 314 314 311 313 312 314 314 313
Wind_Speed
11 11 10 8 7 6 7 10 12 11 11 10 11 10 11 13 14 6 2 5 3 2 5 4 3 4 2 2 3 3 4 3 1 3 3 2 3 1 3 1 1 3 3 3 2 4 5 6 1 4 4 2 3 3
9 10 10 8 7 8 7 9 9 10 11 10 11 9 8 10 12 6 1 2 2 4 4 3 6 8 5 5 3 2 4 2 0 1 1 1 3 2 1 2 2 4 3 2 4 3 3 3 3 1 1 3 3 5
10 10 9 7 7 8 8 8 7 9 10 10 10 10 6 8 9 6 2 3 2 3 4 4 0 3 4 11 11 4 3 1 3 2 1 1 4 1 3 3 3 3 3 4 4 2 4 4 3 3 1 7 7 7
10 10 8 6 7 7 9 9 7 7 9 10 9 8 5 6 6 5 3 1 1 1 3 2 2 4 2 3 7 12 1 3 3 1 0 1 3 3 2 3 5 2 3 4 8 9 9 11 9 9 11 11 10 10
10 6 6 6 7 8 10 10 7 6 8 9 8 7 5 5 6 3 1 0 1 3 3 7 11 0 6 4 7 10 13 5 1 1 2 3 1 3 1 2 8 6 11 8 8 8 10 9 8 10 12 12 12 12
4 6 7 6 7 8 9 9 8 7 8 7 7 6 4 5 6 2 2 2 1 1 3 5 4 4 5 7 4 7 6 5 3 3 3 3 1 4 4 4 5 6 6 10 11 7 6 12 12 13 12 13 14 15
7 7 7 8 9 8 8 8 7 7 7 7 6 6 3 2 2 2 2 3 3 2 2 5 5 2 4 3 2 3 6 2 3 3 4 3 3 4 4 13 14 11 10 9 7 5 8 8 7 10 12 15 17 18
7 8 9 8 8 8 9 7 8 7 7 6 6 4 4 4 4 3 0 8 4 1 2 3 4 4 4 2 1 1 4 3 4 2 2 3 3 3 6 8 5 4 5 6 4 5 9 10 11 14 13 14 17 18
7 8 7 8 8 8 9 6 7 6 5 5 2 3 1 1 2 2 7 12 2 2 2 2 3 2 5 1 2 2 1 3 2 3 2 3 3 6 8 6 4 3 4 4 6 8 10 11 12 14 15 17 17 18
9 9 8 8 7 7 7 7 5 4 3 2 1 2 1 1 2 7 3 2 2 1 1 3 1 4 3 3 1 2 1 1 2 1 1 4 5 9 9 8 7 6 4 4 9 13 13 15 14 16 17 16 16 16
8 8 7 8 8 7 6 6 6 5 3 1 2 2 2 3 2 1 1 2 2 4 4 4 5 3 2 3 2 2 1 1 3 2 3 3 3 2 4 4 3 4 6 8 10 13 13 14 16 17 19 19 18 16
7 6 7 7 7 7 6 6 5 4 1 1 1 1 1 2 1 2 2 1 4 3 4 4 3 5 1 2 3 1 2 1 3 2 3 3 2 5 6 7 8 7 8 10 11 12 15 16 16 17 17 17 16 16
8 8 7 7 7 7 6 6 8 3 3 1 1 2 2 3 1 5 5 4 4 4 4 3 2 1 2 3 1 1 3 3 2 3 3 1 3 6 8 8 10 9 9 11 13 13 15 17 17 17 17 14 15 15
8 8 8 9 8 7 6 6 9 6 2 2 3 2 5 5 5 5 4 2 1 2 0 2 1 2 2 3 2 2 0 2 3 4 2 1 5 8 8 8 8 12 12 13 14 15 17 17 18 18 16 12 13 15
8 7 8 9 9 8 7 3 11 2 2 3 2 5 7 3 2 2 3 3 3 2 2 1 1 2 1 2 3 2 3 4 4 2 1 3 8 8 10 10 11 12 11 12 13 14 16 17 15 15 14 13 14 14
5 6 6 9 10 10 7 8 2 2 2 2 4 4 3 3 4 4 5 5 2 2 2 1 2 3 4 3 4 6 3 4 1 1 2 4 7 9 10 11 12 12 11 11 12 14 15 15 15 15 15 12 12 13
4 4 6 11 12 9 13 3 2 4 3 4 5 5 5 4 4 2 3 2 1 2 3 3 4 4 1 4 4 4 4 1 2 4 5 7 9 10 12 11 11 10 10 10 12 13 13 13 13 12 12 11 10 11
4 4 9 9 10 9 1 2 2 5 5 5 4 3 4 4 4 4 3 3 3 2 1 3 1 5 4 3 2 1 2 1 1 4 6 7 8 9 7 9 9 8 9 11 12 13 14 13 13 10 12 11 10 9
4 3 7 17 7 3 3 4 3 3 5 2 4 4 3 3 6 6 4 4 2 0 1 2 6 5 6 3 4 3 2 1 4 6 7 9 6 8 7 7 6 7 9 11 11 9 9 12 10 9 9 9 5 4
10 10 11 18 7 2 3 2 1 3 4 4 3 4 4 4 3 5 7 7 4 3 5 6 9 7 4 3 3 4 2 1 3 7 9 8 6 7 5 6 5 6 7 9 9 10 9 9 8 8 9 8 5 6
7 5 14 6 3 2 1 3 3 3 2 4 2 4 4 3 4 5 6 5 5 5 7 9 10 9 8 7 5 3 5 4 4 4 7 7 7 5 4 4 4 4 6 7 8 8 9 9 8 7 8 8 7 6
3 5 3 2 2 2 1 3 2 1 3 2 2 4 3 3 4 4 4 5 5 8 8 9 10 10 9 10 9 9 8 4 5 5 5 5 3 4 4 4 5 5 6 7 7 7 8 8 8 8 8 8 9 10
6 2 2 2 4 4 1 2 2 3 3 2 2 3 3 4 3 4 3 4 4 4 5 6 8 9 10 10 6 5 5 6 5 4 0 1 2 2 3 4 5 6 6 7 5 6 7 9 10 10 9 9 9 11
2 3 3 4 2 3 2 2 3 3 3 3 3 3 3 2 3 4 4 3 2 0 1 4 4 3 3 4 5 4 3 3 3 3 2 3 4 5 4 4 4 4 4 4 6 6 5 7 9 9 10 12 13 11
4 5 4 4 3 4 4 4 4 4 4 4 3 4 3 3 4 4 3 1 0 2 2 1 2 2 3 4 4 4 3 4 6 4 2 4 6 6 6 5 4 4 3 5 6 7 8 8 8 11 12 10 13 15
2 4 5 6 4 5 4 3 5 3 1 3 5 1 2 2 2 3 2 2 2 2 2 2 1 3 4 4 7 6 3 2 6 6 1 3 4 6 7 7 6 4 4 4 5 6 8 8 10 13 12 16 15 17
0 3 3 2 2 2 3 1 2 2 3 3 1 3 2 1 4 3 2 1 2 2 2 1 4 6 6 6 5 2 1 2 1 4 5 3 3 2 4 6 7 4 3 4 5 6 8 8 10 11 12 11 12 13
1 1 1 2 2 3 3 2 2 2 1 1 1 3 2 2 2 1 1 1 1 1 3 4 4 5 5 4 4 4 3 4 4 6 6 4 3 3 4 4 4 4 4 5 6 6 7 8 9 10 11 11 10 10
2 2 2 3 4 3 3 2 1 2 1 2 2 1 2 3 4 3 3 1 1 1 1 2 3 2 5 5 5 4 5 6 8 8 6 6 6 4 3 5 5 4 3 5 8 6 8 8 8 8 8 7 6 6
2 4 3 3 3 2 0 3 3 3 2 2 2 2 2 1 2 3 1 0 2 1 1 3 4 4 5 7 6 5 3 3 3 4 6 5 4 5 6 6 5 5 5 6 7 7 6 8 7 6 6 5 4 5
1 2 2 1 2 2 2 2 2 2 2 2 1 2 2 1 1 0 3 3 3 2 3 3 4 4 5 6 5 6 5 5 5 5 4 1 4 5 6 6 5 4 6 7 7 6 6 6 5 5 5 6 5 5
1 1 1 2 3 1 1 2 2 2 2 0 1 1 2 3 3 2 3 4 3 4 2 2 2 4 5 3 3 3 0 3 5 5 5 2 4 5 6 6 4 4 5 5 3 6 7 6 5 5 7 6 5 5
3 4 5 2 2 2 2 2 0 1 1 2 3 2 2 3 3 3 3 4 3 3 3 2 2 1 2 2 1 4 7 7 7 6 8 6 2 2 1 2 4 5 5 6 6 4 6 6 5 6 6 7 6 5
Wind_Direction
282 283 281 275 278 304 324 320 325 329 338 341 344 354 11 7 4 3 40 13 353 301 279 226 242 202 170 232 262 24 257 171 236 202 231 163 229 139 260 268 261 263 254 201 184 235 239 16 216 285 34 33 338 338
283 286 280 273 275 290 314 305 317 320 327 332 336 349 14 10 5 360 12 26 337 236 299 301 272 276 266 266 244 228 330 256 328 127 194 170 206 215 280 247 178 236 286 329 254 344 354 301 302 141 191 344 345 312
275 280 276 268 279 291 305 293 303 312 316 323 329 342 9 12 13 24 322 329 271 300 269 272 270 38 201 228 231 238 216 262 174 338 121 77 256 212 242 232 275 198 188 253 277 154 260 250 223 236 252 321 304 291
270 275 262 272 281 288 299 299 283 305 306 310 321 332 350 2 2 8 320 18 308 337 303 287 329 281 339 217 222 228 330 130 93 227 150 197 244 201 240 323 265 329 189 262 265 283 281 258 248 270 296 304 287 286
272 264 275 276 287 295 296 302 289 288 294 302 314 321 326 344 347 335 216 165 312 329 313 293 310 291 288 252 236 213 213 231 328 232 212 232 193 209 187 261 249 221 252 259 277 299 279 278 298 301 302 290 284 292
259 271 270 282 287 287 291 299 300 296 295 298 305 310 308 341 341 243 179 126 176 286 286 300 344 270 313 329 212 181 186 192 220 220 215 211 207 239 251 251 244 223 243 248 268 310 256 286 293 295 287 296 304 301
247 261 276 281 283 283 283 291 294 288 289 292 298 298 291 348 326 300 351 63 158 279 290 289 298 308 319 301 116 128 172 181 218 219 223 248 211 195 256 263 277 291 283 276 263 263 270 269 283 318 302 296 296 289
254 266 265 267 281 283 278 271 273 283 282 284 291 283 304 305 245 257 140 205 198 289 280 285 277 288 8 336 134 77 150 190 189 264 199 229 145 216 256 252 276 266 280 272 261 226 275 295 290 290 298 301 296 291
251 262 265 270 277 278 282 280 283 284 269 282 309 322 244 208 227 55 85 121 170 286 279 241 283 320 351 29 277 177 246 215 96 243 231 216 189 228 244 263 258 233 257 304 312 295 288 286 297 299 303 301 295 292
248 247 255 264 270 273 285 287 284 262 233 121 274 252 200 138 236 145 207 195 197 195 206 250 249 267 314 345 13 299 354 333 251 99 164 232 257 273 282 265 260 269 267 308 307 314 314 305 303 301 301 297 292 284
239 234 249 261 267 266 265 273 272 140 109 228 210 216 52 324 218 237 206 230 164 230 201 237 224 274 158 285 319 17 4 312 257 99 271 217 247 286 343 340 355 284 280 286 283 286 290 290 295 295 295 294 296 291
238 237 248 257 260 260 258 261 229 159 204 169 171 289 235 200 182 238 239 182 220 249 189 223 204 207 222 228 261 101 290 229 252 2 253 245 44 357 341 333 319 308 296 295 299 297 299 299 296 295 294 293 294 290
242 237 241 247 255 255 245 249 196 133 125 153 204 188 196 158 88 214 206 197 226 201 207 207 208 189 162 223 213 262 251 248 308 228 242 357 14 343 338 323 310 309 308 306 306 307 305 301 299 297 290 283 287 283
241 235 232 239 242 241 233 246 170 132 101 197 172 234 209 189 227 205 214 217 245 232 85 239 225 243 172 183 143 258 105 269 251 239 230 92 343 325 324 330 318 313 315 313 309 308 308 308 307 307 300 292 288 283
236 239 241 249 227 227 221 237 157 101 164 189 162 227 222 238 245 212 232 264 237 246 248 185 180 254 240 245 179 246 218 235 242 278 278 324 323 311 317 325 321 314 310 312 312 312 311 312 309 301 300 298 292 287
225 247 221 196 205 200 197 149 100 106 183 208 225 254 223 245 227 217 229 255 230 202 157 227 174 217 222 219 173 213 215 226 165 235 286 312 303 308 314 315 314 313 313 314 315 318 315 313 311 306 299 292 287 289
226 228 230 206 186 173 160 131 156 185 205 207 229 227 254 288 272 246 191 216 155 204 218 187 213 224 120 245 214 206 215 87 345 320 309 297 300 298 313 320 319 322 322 321 323 321 315 313 313 308 309 315 300 293
233 230 229 180 161 132 120 192 185 197 211 221 242 210 200 237 246 239 228 215 205 202 244 263 307 207 235 245 239 206 254 151 336 323 310 311 324 321 327 320 323 327 326 326 327 323 331 325 321 313 306 303 300 301
240 234 189 160 159 135 149 180 224 216 221 222 245 245 239 243 228 249 252 221 233 52 284 229 242 221 223 224 252 265 261 249 329 323 309 310 316 323 321 327 330 338 339 334 338 335 323 319 315 313 313 312 299 320
244 248 182 164 171 109 142 159 208 242 222 212 214 216 224 228 237 232 232 222 207 201 204 222 231 228 222 210 209 250 240 223 300 310 315 322 339 329 334 335 334 327 333 342 347 336 332 332 337 341 349 350 16 31
166 180 153 132 159 232 166 151 217 238 264 230 196 209 238 209 232 227 230 172 189 213 232 230 240 241 234 251 259 238 252 220 262 273 295 302 330 318 330 350 343 347 346 353 345 339 345 345 338 357 11 11 8 38
94 89 102 178 176 134 256 171 243 284 234 264 225 214 231 228 226 215 147 192 225 228 227 240 235 235 235 237 240 226 248 266 270 271 257 264 295 352 9 13 10 11 8 5 352 353 0 1 3 21 21 21 33 45
125 97 73 105 205 196 198 141 209 203 247 225 195 227 222 220 216 138 237 219 246 229 231 243 252 239 233 240 231 238 222 237 257 265 145 130 54 50 70 42 30 28 31 31 19 17 19 1 17 28 31 38 48 48
78 168 157 189 210 211 143 210 199 237 231 227 222 249 243 195 159 225 244 233 238 175 250 257 241 206 165 185 215 233 212 190 192 97 114 144 109 74 59 58 55 58 40 38 56 53 29 28 33 44 41 47 48 48
159 183 195 181 193 214 204 208 200 210 239 216 212 229 233 195 225 217 230 238 93 274 300 202 158 207 173 149 117 107 112 163 112 97 35 112 111 107 87 77 67 46 24 75 56 56 49 48 51 55 56 59 68 68
200 185 190 189 167 212 210 221 200 193 313 260 232 268 208 236 300 299 310 320 321 325 295 256 233 137 136 124 127 117 113 97 105 101 190 111 108 105 103 104 101 71 31 48 69 62 61 58 60 62 60 63 58 71
177 187 197 227 262 255 252 159 289 265 252 246 329 331 52 140 233 258 277 242 273 298 294 344 120 114 116 107 93 92 121 188 108 99 119 126 100 86 104 107 101 85 70 59 61 72 73 70 72 74 74 70 69 74
274 271 256 146 220 176 260 260 211 241 297 344 315 7 265 271 39 1 39 311 262 283 87 83 82 102 132 144 145 162 139 147 116 119 112 98 92 113 127 111 104 114 83 54 74 83 84 87 92 90 86 85 82 83
248 192 169 210 232 237 235 244 18 34 345 304 275 286 323 20 358 9 77 140 196 203 131 93 88 78 91 98 109 134 153 165 159 157 156 134 138 133 149 135 139 131 102 92 42 63 93 95 99 101 97 93 91 92
237 182 224 236 238 251 306 165 125 205 241 217 294 278 211 76 351 334 310 288 248 261 79 88 105 141 124 123 129 142 174 187 204 177 168 166 151 144 164 165 157 148 131 127 123 122 134 120 122 115 111 112 112 106
120 188 265 307 299 337 4 332 253 199 190 223 215 296 71 85 174 90 6 301 264 214 197 158 130 129 150 157 169 174 192 198 200 215 217 208 166 171 182 185 173 153 164 161 156 152 150 148 136 129 124 113 113 121
112 191 242 260 263 292 332 297 328 330 14 353 111 219 193 197 121 99 28 347 195 192 226 242 209 182 196 170 185 200 331 284 212 211 214 229 235 202 187 180 163 169 180 162 167 167 160 155 156 158 154 153 148 144
198 203 216 237 202 196 157 219 4 344 72 42 58 35 22 360 67 41 39 40 23 351 315 286 247 274 111 188 51 89 78 78 83 86 104 99 94 111 99 202 181 190 203 194 180 191 196 181 179 179 158 163 155 152